Location: Caltech
(34.1382°N, 118.1253°W)
Time: 09:50:46
(UTC-08:00)

RS-15 - Visible Passes

Search period start: 24 February 2018 00:00
Search period end: 06 March 2018 00:00
Orbit: 1887 x 2157 km, 64.8° (Epoch: 23 February)

Date Brightness Start Highest point End Pass type
(mag) Time Alt. Az. Time Alt. Az. Time Alt. Az.
24 Feb 8.7 02:08:05 49° NE 02:08:05 49° NE 02:15:53 10° NNE visible
24 Feb 8.8 04:15:50 29° NW 04:17:33 30° NW 04:27:45 10° NNE visible
25 Feb 9.0 01:33:25 37° NE 01:33:25 37° NE 01:39:41 10° NE visible
25 Feb 8.6 03:41:11 38° NW 03:41:11 38° NW 03:51:53 10° NNE visible
25 Feb 9.6 05:53:09 10° NW 05:58:27 13° NNW 06:03:41 10° NNE visible
26 Feb 9.4 00:58:43 27° NE 00:58:43 27° NE 01:03:21 10° NE visible
26 Feb 8.5 03:06:29 45° NNW 03:06:29 45° NNW 03:16:00 10° NNE visible
26 Feb 9.5 05:14:22 10° WNW 05:21:01 16° NNW 05:27:34 10° NNE visible
27 Feb 9.7 00:23:58 19° NE 00:23:58 19° NE 00:26:48 10° NE visible
27 Feb 8.6 02:31:43 47° N 02:31:43 47° N 02:40:04 10° NNE visible
27 Feb 9.3 04:39:29 16° NW 04:43:45 19° NNW 04:51:37 10° NNE visible
27 Feb 10.0 23:49:12 12° NE 23:49:12 12° NE 23:49:53 10° NE visible
28 Feb 8.8 01:56:57 43° NNE 01:56:57 43° NNE 02:04:05 10° NNE visible
28 Feb 9.1 04:04:42 23° NW 04:06:40 23° NW 04:15:43 10° NNE visible
01 Mar 9.1 01:22:08 36° NNE 01:22:08 36° NNE 01:28:02 10° NNE visible
01 Mar 9.0 03:29:53 29° NW 03:29:53 29° NW 03:39:52 10° NNE visible
01 Mar 9.7 05:44:20 10° NNW 05:48:23 12° N 05:52:23 10° NNE visible
02 Mar 9.3 00:47:18 28° NE 00:47:18 28° NE 00:51:52 10° NE visible
02 Mar 8.9 02:55:03 35° NNW 02:55:03 35° NNW 03:04:00 10° NNE visible
02 Mar 9.6 05:05:43 10° NW 05:10:49 13° NNW 05:15:51 10° NNE visible
03 Mar 9.6 00:12:26 21° NE 00:12:26 21° NE 00:15:33 10° NE visible
03 Mar 8.8 02:20:10 39° NNW 02:20:10 39° NNW 02:28:07 10° NNE visible
03 Mar 9.6 04:27:55 11° NW 04:33:21 15° NNW 04:39:42 10° NNE visible
03 Mar 9.8 23:37:32 15° NE 23:37:32 15° NE 23:39:02 10° NE visible
04 Mar 8.9 01:45:16 39° N 01:45:16 39° N 01:52:12 10° NNE visible
04 Mar 9.4 03:53:00 17° NW 03:56:04 18° NNW 04:03:44 10° NNE visible
05 Mar 9.1 01:10:21 35° NNE 01:10:21 35° NNE 01:16:14 10° NNE visible
05 Mar 9.2 03:18:05 23° NW 03:18:58 23° NW 03:27:51 10° NNE visible
05 Mar 9.8 05:34:39 10° NNW 05:38:23 12° N 05:42:05 10° NNE visible
